Regional Weather Roundup
Issued by NWS Cleveland, OH

Home | Current Version | Previous Version | Graphics & Text | Print | Product List | Glossary On
Versions: 1 2 3 4 5 6 7 8 9 10 11 12 13 14 15 16 17 18 19 20 21 22 23 24 25 26 27 28 29 30 31 32 33 34 35 36 37 38 39 40 41 42 43 44 45 46 47 48 49 50
000
ASUS41 KCLE 250810
RWRCLE
OHIO REGIONAL WEATHER ROUNDUP
NATIONAL WEATHER SERVICE WILMINGTON, OH
400 AM EDT SAT MAR 25 2017

NOTE: "FAIR" INDICATES FEW OR NO CLOUDS BELOW 12,000 FEET WITH NO
SIGNIFICANT WEATHER AND/OR OBSTRUCTIONS TO VISIBILITY.

OHZ001>008-015>018-024>027-034-035-043-044-250900-
   NORTHWEST OHIO

CITY           SKY/WX    TMP DP  RH WIND       PRES   REMARKS
DEFIANCE       MOCLDY    57  51  80 S5        30.04S
FINDLAY        CLOUDY    62  51  67 SW10      30.05S
TOLEDO EXPRESS CLOUDY    47  40  76 E9        30.07R
TOLEDO EXEC    MOCLDY    45  40  82 NE8       30.09S
LIMA           FAIR      61  52  72 S9        30.06F
$$

OHZ009>014-019>023-028>033-038-089-250900-
   NORTHEAST OHIO

CITY           SKY/WX    TMP DP  RH WIND       PRES   REMARKS
CLE-HOPKINS    FAIR      55  46  71 N6        30.10S
CLE-LAKEFRONT  MOCLDY    47  41  80 SW3       30.07S
CUY CO. ARPT   NOT AVBL
LORAIN-ELYRIA  FAIR      53  45  74 CALM      30.07F
ASHTABULA      FAIR      54  48  80 CALM      30.07F
AKRON-CANTON   CLOUDY    61  51  70 SW8       30.10S
WOOSTER        CLOUDY    60  51  72 SW7       30.10S
MANSFIELD      FAIR      63  52  67 MISG      30.09S
YOUNGSTOWN     CLOUDY    61  51  70 SW9       30.08F
$$

OHZ042-051>053-060>062-070>072-077>081-250900-
  SOUTHWEST OHIO

CITY           SKY/WX    TMP DP  RH WIND       PRES   REMARKS
CINC-COVINGTON CLOUDY    59  51  75 S8        30.11F
CINC-LUNKEN    FAIR      58  51  78 SW6       30.12F
HAMILTON       FAIR      62  53  72 S3        30.11S
DAYTON         MOCLDY    62  51  67 S14       30.09F
WRIGHT-PAT AFB MOCLDY    62  53  72 S13       30.09S
DAYTON GENERAL FAIR      59  51  75 S9        30.10F
WILMINGTON     FAIR      58  51  78 S10       30.12S
$$

OHZ036-037-039>041-045>050-054>059-063>069-073>076-082>088-250900-
  CENTRAL AND SOUTHEAST OHIO

CITY           SKY/WX    TMP DP  RH WIND       PRES   REMARKS
COLUMBUS       CLOUDY    62  52  69 S12       30.10F
OSU AIRPORT    FAIR      60  53  77 S7        30.10F
BOLTON FIELD   FAIR      59  52  76 S9        30.11F
RICKENBACK AFB FAIR      60  51  72 SW13      30.11S
NEWARK         FAIR      62  51  67 SW8       30.11S
MARION         FAIR      58  51  78 S8        30.09S
LANCASTER      FAIR      65  50  58 SW12      30.13S
ZANESVILLE     FAIR      63  50  62 SW6       30.12S
NEW PHILLY     FAIR      64  52  64 VRB5      30.12R
$$




USA.gov is the U.S. government's official web portal to all federal, state and local government web resources and services.